N8DNY-13 Weather Reports


Display with metric or nautical units.
time (UTC)temp
F
wind
direction
speed
MPH
gust
MPH
rain 1hr
in
rain 24hr
in
rain mn
in
humidity
%
barometer
mb
20260507000434 54 288 0.0 0.0 0.00 0.06 0.06 44 1016.9
20260506234930 55 290 0.0 1.0 0.00 0.06 0.06 45 1016.6
20260506233430 55 287 0.0 0.0 0.00 0.06 0.06 41 1016.9
20260506231926 56 279 0.0 0.0 0.00 0.06 0.06 42 1016.6
20260506230425 56 306 0.0 0.0 0.00 0.06 0.06 41 1016.7
20260506224942 56 279 0.0 0.0 0.00 0.06 0.06 40 1016.8
20260506223440 57 283 0.0 0.0 0.00 0.06 0.06 41 1016.7
20260506221910 57 286 0.0 0.0 0.00 0.06 0.06 39 1016.7
20260506220422 57 291 0.0 1.0 0.00 0.06 0.06 39 1016.9
20260506214900 58 287 0.0 0.0 0.00 0.06 0.06 40 1016.8
20260506213350 58 277 0.0 0.0 0.00 0.06 0.06 40 1017.0
20260506211900 58 314 0.0 1.0 0.00 0.06 0.06 37 1016.7
20260506210340 57 272 0.0 1.0 0.00 0.06 0.06 39 1016.6
20260506204830 59 285 0.0 1.0 0.00 0.06 0.06 37 1016.7
20260506203341 58 275 1.0 2.0 0.00 0.06 0.06 39 1016.6
20260506201820 59 279 0.0 1.0 0.00 0.06 0.06 39 1016.8
20260506200318 58 277 0.0 1.0 0.00 0.06 0.06 39 1016.7
20260506194836 57 273 0.0 1.0 0.00 0.06 0.06 43 1016.8
20260506193314 56 288 0.0 1.0 0.00 0.06 0.06 40 1017.1
20260506191833 58 271 0.0 0.0 0.00 0.06 0.06 38 1016.9
20260506190310 59 306 1.0 2.0 0.00 0.06 0.06 38 1016.9
20260506184810 59 268 0.0 1.0 0.00 0.06 0.06 44 1016.9
20260506183300 59 282 0.0 1.0 0.00 0.06 0.06 41 1016.6
20260506181750 59 308 0.0 1.0 0.00 0.06 0.06 38 1016.7
20260506180309 59 283 0.0 1.0 0.00 0.06 0.06 38 1016.4
20260506174800 60 12 1.0 2.0 0.00 0.06 0.06 37 1016.6
20260506173250 60 288 0.0 0.0 0.00 0.06 0.06 44 1016.6
20260506171730 59 270 1.0 2.0 0.00 0.06 0.06 42 1016.6
20260506170247 60 289 2.0 2.0 0.00 0.06 0.06 40 1017.0
20260506164726 60 295 0.0 1.0 0.00 0.06 0.06 41 1016.7
20260506163224 61 266 1.0 2.0 0.00 0.06 0.06 42 1016.8
20260506161740 61 319 0.0 1.0 0.00 0.06 0.06 43 1016.8
20260506160210 61 290 1.0 2.0 0.00 0.06 0.06 44 1016.8
20260506154724 60 283 0.0 1.0 0.00 0.06 0.06 44 1016.8
20260506153203 61 282 1.0 2.0 0.00 0.06 0.06 43 1016.5
20260506151701 58 305 0.0 2.0 0.00 0.06 0.06 43 1016.5
20260506150220 58 280 0.0 2.0 0.00 0.06 0.06 46 1016.5
20260506144650 57 289 1.0 2.0 0.00 0.06 0.06 45 1016.1
20260506143141 58 329 3.0 4.0 0.00 0.06 0.06 44 1016.0
20260506141700 56 292 0.0 1.0 0.00 0.06 0.06 45 1016.0
20260506140138 56 280 0.0 2.0 0.00 0.06 0.06 50 1016.1
20260506134630 56 286 0.0 0.0 0.00 0.06 0.06 52 1015.9
20260506133120 56 286 0.0 1.0 0.00 0.06 0.06 55 1015.7
20260506131619 54 288 0.0 1.0 0.00 0.06 0.06 60 1015.7
20260506130138 52 0 0.0 2.0 0.00 0.06 0.06 66 1015.3
20260506124615 52 285 0.0 0.0 0.00 0.06 0.06 69 1015.4
20260506123110 50 281 0.0 0.0 0.00 0.06 0.06 78 1015.1
20260506121601 46 291 0.0 0.0 0.00 0.06 0.06 89 1014.9
20260506120057 46 290 0.0 0.0 0.00 0.06 0.06 92 1014.8
20260506114555 45 290 0.0 0.0 0.00 0.06 0.06 95 1014.6
20260506113054 45 289 0.0 0.0 0.00 0.06 0.06 96 1014.6
20260506111553 45 287 0.0 0.0 0.00 0.06 0.06 96 1014.2
20260506110050 44 289 0.0 0.0 0.00 0.06 0.06 96 1014.0
20260506104540 45 286 0.0 0.0 0.00 0.06 0.06 96 1013.6
20260506103050 44 278 0.0 0.0 0.00 0.06 0.06 96 1013.2
20260506101520 44 276 0.0 0.0 0.00 0.06 0.06 96 1013.4
20260506100010 44 281 0.0 0.0 0.00 0.06 0.06 96 1013.7
20260506094502 44 275 0.0 0.0 0.00 0.06 0.06 96 1013.2
20260506093000 44 278 0.0 0.0 0.00 0.06 0.06 96 1013.1
20260506091516 44 284 0.0 0.0 0.00 0.06 0.06 96 1013.0
20260506085951 44 272 0.0 0.0 0.00 0.06 0.06 96 1013.5
20260506084440 44 275 0.0 0.0 0.00 0.06 0.06 96 1013.2
20260506082930 45 276 0.0 0.0 0.00 0.06 0.06 96 1013.1
20260506081420 45 272 0.0 0.0 0.00 0.06 0.06 96 1013.1
20260506072901 45 281 0.0 0.0 0.00 0.06 0.06 96 1013.2
20260506071400 45 273 0.0 0.0 0.07 0.06 0.06 97 1013.4
20260506061335 46 282 0.0 0.0 0.00 0.02 0.02 97 1013.9
20260506051324 46 287 0.0 0.0 0.00 0.01 0.01 97 1013.5
20260506044319 47 287 0.0 0.0 0.00 0.01 0.01 97 1013.5
20260506042815 47 287 0.0 0.0 0.07 0.01 0.01 97 1013.4
20260506041310 47 287 0.0 0.0 0.00 0.00 0.00 97 1013.4
20260506035800 47 287 0.0 0.0 0.00 0.29 0.29 97 1013.4
20260506034252 47 287 0.0 0.0 0.00 0.29 0.29 96 1013.6
20260506032750 47 287 0.0 0.0 0.00 0.29 0.29 96 1013.3
20260506031247 47 287 0.0 0.0 0.00 0.29 0.29 96 1013.4
20260506025740 48 295 0.0 0.0 0.05 0.29 0.29 97 1013.1
20260506024230 48 289 0.0 0.0 0.00 0.28 0.28 97 1013.4
20260506022724 49 281 0.0 0.0 0.00 0.28 0.28 97 1013.5
20260506021220 49 277 0.0 0.0 0.07 0.28 0.28 97 1013.5
20260506015710 50 276 0.0 0.0 0.05 0.27 0.27 97 1013.3
20260506014221 50 276 0.0 0.0 0.07 0.26 0.26 97 1013.2
20260506012700 50 274 0.0 0.0 0.05 0.25 0.25 96 1013.0
20260506011156 50 275 0.0 0.0 0.00 0.24 0.24 96 1012.8
20260506005650 50 276 0.0 0.0 0.07 0.24 0.24 96 1012.6
20260506004140 50 279 0.0 0.0 0.00 0.23 0.23 95 1012.7
20260506002633 50 273 0.0 0.0 0.00 0.23 0.23 95 1012.6